GFSNIL_850_spd_036.txt.gz
Wind_Speed
40 42 43 47 46 43 45 42 45 46 45 41 37 37 33 29 29 25 21 16 14 13
36 40 41 43 46 43 42 41 44 44 41 38 39 37 33 32 27 24 18 17 14 13
33 37 39 41 47 41 42 41 42 40 37 39 39 36 32 28 24 23 18 15 13 12
31 34 40 44 39 39 38 38 36 37 38 39 37 33 28 24 20 19 15 14 12 13
28 28 36 34 33 34 31 32 35 38 39 37 33 28 25 20 20 17 13 11 12 12
26 28 28 27 27 27 28 32 33 37 38 34 30 26 23 19 13 14 12 11 12 15
25 27 27 28 28 26 27 30 33 35 32 27 22 19 16 14 14 11 13 16 18 19
28 28 27 26 26 26 27 27 28 28 24 22 21 19 15 12 13 14 17 18 16 19
24 24 26 26 26 25 24 25 25 21 20 18 14 12 13 15 17 13 13 15 17 18
18 25 25 24 22 21 22 22 20 19 15 13 12 12 16 10 8 11 13 15 18 19
22 22 21 23 19 18 17 17 17 17 16 12 8 6 8 11 12 13 14 16 18 20
14 16 16 16 16 17 20 18 13 10 8 3 5 10 12 12 11 11 14 16 16 18
16 19 20 20 22 19 15 11 9 6 6 5 7 7 7 12 14 16 18 18 18 21
21 22 21 16 13 13 11 9 7 5 5 5 6 7 8 10 15 18 21 23 24 23

GFSNIL_850_spd_039.txt.gz
Wind_Speed
30 33 33 38 39 39 45 47 46 46 45 45 43 42 39 39 36 33 29 26 22 19
33 32 33 31 38 37 39 45 44 45 43 43 44 42 39 38 35 31 29 26 22 19
33 34 32 28 30 38 41 42 43 42 41 43 40 37 37 37 33 28 26 24 22 17
31 28 28 26 30 34 40 43 41 39 37 36 34 36 37 34 31 29 26 21 17 18
27 26 24 25 30 35 39 37 33 31 30 32 34 36 35 33 28 25 23 22 16 19
19 20 21 24 25 28 29 27 28 27 30 33 33 33 29 26 24 21 15 7 15 14
16 17 18 20 22 23 25 26 26 25 26 28 29 26 24 23 18 13 11 11 15 19
14 16 18 19 20 22 24 23 22 23 24 27 27 24 22 20 17 11 12 15 19 20
12 15 17 18 20 21 21 19 18 21 24 22 19 17 15 10 9 10 14 15 13 15
11 13 17 18 17 16 16 18 18 17 16 15 14 13 11 7 10 8 9 12 14 16
7 8 12 13 14 15 16 17 17 18 18 15 12 8 6 3 3 7 10 13 15 18
8 14 16 19 19 19 17 19 17 14 9 5 6 1 3 4 6 7 10 14 16 18
16 17 18 20 21 21 18 13 11 10 7 5 2 1 4 6 9 12 15 17 18 20
16 18 20 20 17 15 13 11 9 7 5 3 2 3 6 9 13 15 18 20 21 21

GFSNIL_850_spd_042.txt.gz
Wind_Speed
21 27 31 33 34 37 37 36 39 43 43 41 40 40 41 41 43 38 37 37 33 29
21 22 26 29 32 36 36 38 38 40 42 45 43 42 44 43 42 39 38 36 33 32
23 25 27 27 29 31 33 35 37 40 41 43 44 43 43 40 37 38 37 34 32 25
20 23 26 24 25 29 31 32 34 36 36 36 39 40 37 34 35 36 35 31 27 24
25 24 24 22 21 24 26 28 30 31 29 28 30 31 30 32 33 33 31 28 25 23
22 21 19 17 18 19 20 20 22 23 23 23 24 27 29 29 29 27 25 24 23 20
17 13 11 12 12 12 14 17 18 19 21 22 23 25 26 27 26 23 20 19 15 11
11 8 8 9 10 11 13 15 17 19 20 20 22 23 25 21 19 16 13 12 10 10
4 5 6 9 10 12 13 14 15 16 17 19 21 19 14 13 13 12 11 9 10 10
1 4 6 7 7 8 10 11 13 15 15 16 15 13 13 13 10 8 8 8 7 8
4 6 9 9 10 13 15 15 17 16 16 14 13 9 9 5 3 3 3 7 8 10
11 15 13 16 17 19 18 18 18 17 14 10 9 6 2 2 0 2 5 9 10 13
14 14 16 17 17 18 17 17 14 12 9 8 6 4 3 0 4 7 8 11 13 15
14 16 17 18 16 14 13 12 12 11 10 7 5 3 3 7 8 11 13 14 15 15

GFSNIL_850_spd_045.txt.gz
Wind_Speed
14 19 27 31 31 33 34 33 32 33 35 38 39 42 42 41 40 42 42 43 41 38
15 17 19 21 25 28 30 32 33 36 37 35 37 41 41 42 41 39 40 41 41 40
15 15 16 18 20 22 25 29 32 32 34 35 36 39 42 42 41 39 36 39 41 39
13 15 16 19 22 23 25 27 29 30 29 30 32 32 36 38 36 35 35 37 38 37
19 18 18 21 21 21 22 23 23 23 23 23 25 26 28 30 31 31 33 36 35 31
23 29 27 20 17 21 17 16 16 17 16 17 19 21 23 25 27 28 28 28 25 23
20 19 17 21 16 16 20 12 12 12 14 16 18 19 20 23 24 25 24 21 17 17
12 13 13 10 10 9 10 11 12 12 15 17 17 17 19 20 20 17 15 14 14 14
10 10 7 5 6 7 7 8 10 12 13 14 16 17 14 12 12 12 12 12 11 9
8 5 3 2 5 7 9 11 13 14 15 15 14 13 13 12 10 9 8 8 9 7
5 3 5 7 10 15 16 17 16 17 16 16 15 11 10 8 6 6 5 3 1 4
8 8 10 13 15 17 17 18 18 16 14 11 13 10 9 6 4 3 1 2 4 6
13 14 15 16 17 17 17 17 16 15 12 10 8 8 7 5 2 2 4 6 8 10
16 17 17 17 15 14 13 13 11 11 10 10 9 7 7 4 5 6 8 9 10 10

GFSNIL_850_spd_051.txt.gz
Wind_Speed
10 12 13 14 18 22 25 26 24 28 32 32 31 30 34 40 39 43 46 45 43 46
9 11 13 14 15 17 17 20 22 24 25 30 29 28 30 35 38 38 40 40 39 42
8 10 11 11 12 13 14 16 17 18 26 25 28 26 26 30 34 36 37 35 34 36
10 11 12 13 15 17 17 19 21 22 24 23 25 26 23 23 26 28 31 31 31 32
13 14 14 14 15 17 19 21 21 22 21 21 21 19 18 19 20 23 25 27 28 28
13 14 14 14 14 16 16 18 18 19 18 16 15 14 16 16 17 20 22 23 23 22
13 15 15 13 13 13 12 12 10 10 11 13 16 15 13 13 14 16 18 16 13 11
12 12 12 11 10 11 10 9 8 8 10 8 8 11 10 8 7 8 8 7 6 6
9 10 10 11 11 8 7 7 6 5 7 6 5 7 5 4 5 6 7 7 7 7
8 9 9 9 9 10 10 10 10 11 11 10 11 9 10 9 8 7 8 7 5 4
10 11 12 12 14 14 14 14 14 13 11 10 11 8 7 6 5 4 4 3 1 3
14 14 14 16 16 16 15 15 14 13 11 10 10 8 8 5 5 6 5 3 2 3
16 16 17 17 16 16 14 13 12 11 10 10 9 8 6 5 5 5 5 5 6 6
15 15 15 14 13 12 12 11 11 11 10 8 8 7 7 7 6 6 7 7 9 10

GFSNIL_850_spd_054.txt.gz
Wind_Speed
10 11 12 13 13 14 20 21 21 22 25 28 25 28 30 32 34 37 41 45 44 47
8 12 14 14 15 16 16 19 23 23 22 24 24 26 24 26 30 32 35 38 41 44
6 8 10 10 13 15 16 17 19 21 23 22 22 24 23 23 25 29 31 33 36 37
8 9 10 12 15 18 19 19 18 17 19 22 26 22 20 21 21 22 25 27 30 30
10 12 12 12 14 15 15 16 18 19 19 19 18 20 20 19 17 18 19 21 24 24
10 11 12 12 11 11 11 14 13 15 14 13 13 11 13 15 14 13 14 16 19 18
10 10 10 9 7 7 10 9 10 11 11 11 12 12 10 11 13 10 11 12 13 13
9 8 7 8 8 7 8 8 8 8 9 9 10 7 9 8 4 7 5 5 6 4
6 5 6 5 5 6 6 9 10 9 8 8 11 10 7 3 2 4 4 5 5 3
4 6 7 8 9 11 13 14 13 13 13 14 16 14 13 12 9 7 6 4 3 3
8 10 11 12 14 15 15 15 15 14 14 12 14 13 12 10 8 6 3 3 2 1
12 13 13 15 16 16 15 15 14 13 12 12 11 9 8 8 7 6 4 4 4 4
14 14 14 15 14 13 12 13 12 10 10 10 10 9 7 7 8 8 8 8 7 7
13 12 12 11 11 10 10 10 10 9 9 9 8 8 8 8 8 8 8 8 10 11

GFSNIL_850_spd_057.txt.gz
Wind_Speed
15 16 15 16 16 16 16 17 22 25 24 25 24 24 24 28 27 27 31 36 39 41
12 14 15 16 16 16 18 18 19 21 25 28 27 26 22 20 26 25 25 30 33 34
6 8 10 13 14 16 16 17 18 19 21 22 22 22 24 25 25 25 24 25 26 28
7 9 10 12 13 16 17 17 17 18 18 18 19 21 25 26 22 22 22 23 23 25
10 10 11 11 11 11 12 14 16 16 16 17 18 18 18 19 17 18 17 17 19 20
9 10 10 9 9 7 8 11 11 11 12 11 10 10 11 10 10 11 13 14 14 14
9 9 8 7 5 2 5 6 6 6 7 8 10 12 10 10 9 10 11 12 13 12
8 8 7 5 3 1 3 5 6 6 7 8 8 7 6 7 6 5 5 5 5 5
6 4 2 3 3 6 7 8 8 9 10 9 12 15 12 10 8 6 4 4 3 2
1 3 5 8 9 10 10 11 11 11 11 12 15 14 13 12 9 8 6 5 3 2
6 9 11 12 12 12 11 11 12 13 13 13 14 12 11 9 7 6 5 5 4 4
10 12 13 15 14 13 11 11 11 11 11 10 11 10 9 8 6 6 6 6 7 7
13 14 14 14 12 11 10 10 9 8 8 8 9 9 9 9 8 8 8 8 8 9
13 12 11 11 10 9 7 7 6 6 7 7 7 8 8 8 10 11 12 12 12 12